Year,Month,Day,Hour,Minute,Value (Times are PST for windspeed in km/hr)
2009,11,08,00,00,0.10
2009,11,08,00,01,0.00
2009,11,08,00,02,0.20
2009,11,08,00,03,0.40
2009,11,08,00,04,0.00
2009,11,08,00,05,0.00
2009,11,08,00,06,0.00
2009,11,08,00,07,0.00
2009,11,08,00,08,0.00
2009,11,08,00,09,0.00
2009,11,08,00,10,0.00
2009,11,08,00,11,0.00
2009,11,08,00,12,0.00
2009,11,08,00,16,0.00
2009,11,08,00,17,0.00
2009,11,08,00,18,0.00
2009,11,08,00,19,0.00
2009,11,08,00,20,0.00
2009,11,08,00,21,0.00
2009,11,08,00,22,0.00
2009,11,08,00,23,0.00
2009,11,08,00,24,0.00
2009,11,08,00,25,0.00
2009,11,08,00,26,0.00
2009,11,08,00,27,0.00
2009,11,08,00,28,0.00
2009,11,08,00,29,0.00
2009,11,08,00,30,0.00
2009,11,08,00,31,0.00
2009,11,08,00,32,0.00
2009,11,08,00,33,0.00
2009,11,08,00,34,0.00
2009,11,08,00,35,0.00
2009,11,08,00,36,0.00
2009,11,08,00,37,0.00
2009,11,08,00,38,0.00
2009,11,08,00,39,0.00
2009,11,08,00,40,0.00
2009,11,08,00,41,0.00
2009,11,08,00,42,0.10
2009,11,08,00,43,0.00
2009,11,08,00,44,0.60
2009,11,08,00,45,0.00
2009,11,08,00,46,0.00
2009,11,08,00,47,0.00
2009,11,08,00,48,0.00
2009,11,08,00,49,0.00
2009,11,08,00,50,0.00
2009,11,08,00,51,0.00
2009,11,08,00,52,0.60
2009,11,08,00,53,1.80
2009,11,08,00,54,0.00
2009,11,08,00,55,0.10
2009,11,08,00,56,0.50
2009,11,08,00,57,0.10
2009,11,08,00,58,0.30
2009,11,08,00,59,0.10
2009,11,08,01,00,0.10
2009,11,08,01,01,0.00
2009,11,08,01,02,0.10
2009,11,08,01,03,0.70
2009,11,08,01,04,0.30
2009,11,08,01,05,0.10
2009,11,08,01,06,0.00
2009,11,08,01,07,0.00
2009,11,08,01,08,0.00
2009,11,08,01,09,0.00
2009,11,08,01,10,0.00
2009,11,08,01,11,0.00
2009,11,08,01,12,0.00
2009,11,08,01,13,0.00
2009,11,08,01,14,0.00
2009,11,08,01,15,0.10
2009,11,08,01,16,0.10
2009,11,08,01,17,0.50
2009,11,08,01,18,0.20
2009,11,08,01,19,0.00
2009,11,08,01,20,0.00
2009,11,08,01,21,0.00
2009,11,08,01,22,0.00
2009,11,08,01,23,0.00
2009,11,08,01,24,0.00
2009,11,08,01,25,0.00
2009,11,08,01,26,0.00
2009,11,08,01,27,0.00
2009,11,08,01,28,0.00
2009,11,08,01,29,0.00
2009,11,08,01,30,0.00
2009,11,08,01,31,0.00
2009,11,08,01,32,0.00
2009,11,08,01,33,0.00
2009,11,08,01,34,0.00
2009,11,08,01,35,0.00
2009,11,08,01,36,0.00
2009,11,08,01,37,0.30
2009,11,08,01,38,0.30
2009,11,08,01,39,1.00
2009,11,08,01,40,0.70
2009,11,08,01,41,0.10
2009,11,08,01,42,0.00
2009,11,08,01,43,0.00
2009,11,08,01,44,0.00
2009,11,08,01,45,0.60
2009,11,08,01,46,2.40
2009,11,08,01,47,4.30
2009,11,08,01,48,3.50
2009,11,08,01,49,3.40
2009,11,08,01,50,5.00
2009,11,08,01,51,0.50
2009,11,08,01,52,0.60
2009,11,08,01,53,1.30
2009,11,08,01,54,0.50
2009,11,08,01,55,2.80
2009,11,08,01,56,3.00
2009,11,08,01,57,4.60
2009,11,08,01,58,2.60
2009,11,08,01,59,3.40
2009,11,08,02,00,3.80
2009,11,08,02,01,2.00
2009,11,08,02,02,3.50
2009,11,08,02,03,0.00
2009,11,08,02,04,0.30
2009,11,08,02,05,0.50
2009,11,08,02,06,1.20
2009,11,08,02,07,1.10
2009,11,08,02,08,2.00
2009,11,08,02,09,6.80
2009,11,08,02,10,4.10
2009,11,08,02,11,3.00
2009,11,08,02,12,3.10
2009,11,08,02,13,0.00
2009,11,08,02,14,3.00
2009,11,08,02,15,0.60
2009,11,08,02,16,0.60
2009,11,08,02,17,3.10
2009,11,08,02,18,1.10
2009,11,08,02,19,0.20
2009,11,08,02,20,0.10
2009,11,08,02,21,0.00
2009,11,08,02,22,0.30
2009,11,08,02,23,1.20
2009,11,08,02,24,2.90
2009,11,08,02,25,0.30
2009,11,08,02,26,1.10
2009,11,08,02,27,0.20
2009,11,08,02,28,4.80
2009,11,08,02,29,2.60
2009,11,08,02,30,2.20
2009,11,08,02,31,2.30
2009,11,08,02,32,5.50
2009,11,08,02,33,1.90
2009,11,08,02,34,3.60
2009,11,08,02,35,2.50
2009,11,08,02,36,5.60
2009,11,08,02,37,3.30
2009,11,08,02,38,2.20
2009,11,08,02,39,3.80
2009,11,08,02,40,6.60
2009,11,08,02,41,3.00
2009,11,08,02,42,1.30
2009,11,08,02,43,6.10
2009,11,08,02,44,2.50
2009,11,08,02,45,3.80
2009,11,08,02,46,3.00
2009,11,08,02,47,2.10
2009,11,08,02,48,0.20
2009,11,08,02,49,5.30
2009,11,08,02,50,3.80
2009,11,08,02,51,4.10
2009,11,08,02,52,4.70
2009,11,08,02,53,1.30
2009,11,08,02,54,2.40
2009,11,08,02,55,1.00
2009,11,08,02,56,0.00
2009,11,08,02,57,0.00
2009,11,08,02,58,1.40
2009,11,08,02,59,8.00
2009,11,08,03,00,6.30
2009,11,08,03,01,4.50
2009,11,08,03,02,1.80
2009,11,08,03,03,1.30
2009,11,08,03,04,3.50
2009,11,08,03,05,2.90
2009,11,08,03,06,2.50
2009,11,08,03,07,4.20
2009,11,08,03,08,0.00
2009,11,08,03,09,1.00
2009,11,08,03,10,1.70
2009,11,08,03,11,1.30
2009,11,08,03,12,1.50
2009,11,08,03,13,1.40
2009,11,08,03,14,0.50
2009,11,08,03,15,3.40
2009,11,08,03,16,0.30
2009,11,08,03,17,3.70
2009,11,08,03,18,2.90
2009,11,08,03,19,4.20
2009,11,08,03,20,2.40
2009,11,08,03,21,4.20
2009,11,08,03,22,4.40
2009,11,08,03,23,7.20
2009,11,08,03,24,3.60
2009,11,08,03,25,0.40
2009,11,08,03,26,6.20
2009,11,08,03,27,5.40
2009,11,08,03,28,5.90
2009,11,08,03,29,3.80
2009,11,08,03,30,1.30
2009,11,08,03,31,2.40
2009,11,08,03,32,0.10
2009,11,08,03,33,1.10
2009,11,08,03,34,0.70
2009,11,08,03,35,2.20
2009,11,08,03,36,1.70
2009,11,08,03,37,6.40
2009,11,08,03,38,3.60
2009,11,08,03,39,1.70
2009,11,08,03,40,0.90
2009,11,08,03,41,3.10
2009,11,08,03,42,0.40
2009,11,08,03,43,0.30
2009,11,08,03,44,2.10
2009,11,08,03,45,3.00
2009,11,08,03,46,1.30
2009,11,08,03,47,0.30
2009,11,08,03,48,0.50
2009,11,08,03,49,0.90
2009,11,08,03,50,0.00
2009,11,08,03,51,4.10
2009,11,08,03,52,0.20
2009,11,08,03,53,1.60
2009,11,08,03,54,3.80
2009,11,08,03,55,3.70
2009,11,08,03,56,1.30
2009,11,08,03,57,3.90
2009,11,08,03,58,3.30
2009,11,08,03,59,4.10
2009,11,08,04,00,0.50
2009,11,08,04,01,0.10
2009,11,08,04,02,0.70
2009,11,08,04,03,3.10
2009,11,08,04,04,0.50
2009,11,08,04,05,1.20
2009,11,08,04,06,1.20
2009,11,08,04,07,4.30
2009,11,08,04,08,0.60
2009,11,08,04,09,3.80
2009,11,08,04,10,0.70
2009,11,08,04,11,1.70
2009,11,08,04,12,4.30
2009,11,08,04,13,3.90
2009,11,08,04,14,5.70
2009,11,08,04,15,9.30
2009,11,08,04,16,5.80
2009,11,08,04,17,2.40
2009,11,08,04,18,3.90
2009,11,08,04,19,3.30
2009,11,08,04,20,4.90
2009,11,08,04,21,3.10
2009,11,08,04,22,4.10
2009,11,08,04,23,5.00
2009,11,08,04,24,0.90
2009,11,08,04,25,0.80
2009,11,08,04,26,2.40
2009,11,08,04,27,0.70
2009,11,08,04,28,2.00
2009,11,08,04,29,2.10
2009,11,08,04,30,2.90
2009,11,08,04,31,2.70
2009,11,08,04,32,5.40
2009,11,08,04,33,1.90
2009,11,08,04,34,0.90
2009,11,08,04,35,3.40
2009,11,08,04,36,1.70
2009,11,08,04,37,1.20
2009,11,08,04,38,0.60
2009,11,08,04,39,11.30
2009,11,08,04,40,0.50
2009,11,08,04,41,3.10
2009,11,08,04,42,0.80
2009,11,08,04,43,3.80
2009,11,08,04,44,2.30
2009,11,08,04,45,3.80
2009,11,08,04,46,2.10
2009,11,08,04,47,8.80
2009,11,08,04,48,4.40
2009,11,08,04,49,7.00
2009,11,08,04,50,4.10
2009,11,08,04,51,2.20
2009,11,08,04,52,5.80
2009,11,08,04,53,6.70
2009,11,08,04,54,9.40
2009,11,08,04,55,6.70
2009,11,08,04,56,5.80
2009,11,08,04,57,4.50
2009,11,08,04,58,2.50
2009,11,08,04,59,0.60
2009,11,08,05,00,1.90
2009,11,08,05,01,4.40
2009,11,08,05,02,3.60
2009,11,08,05,03,3.60
2009,11,08,05,04,0.50
2009,11,08,05,05,2.10
2009,11,08,05,06,0.10
2009,11,08,05,07,1.80
2009,11,08,05,08,8.00
2009,11,08,05,09,6.30
2009,11,08,05,10,5.70
2009,11,08,05,11,1.70
2009,11,08,05,12,1.00
2009,11,08,05,13,1.60
2009,11,08,05,14,3.40
2009,11,08,05,15,3.60
2009,11,08,05,16,2.10
2009,11,08,05,17,3.30
2009,11,08,05,18,4.70
2009,11,08,05,19,2.60
2009,11,08,05,20,2.90
2009,11,08,05,21,2.00
2009,11,08,05,22,0.40
2009,11,08,05,23,3.80
2009,11,08,05,24,6.50
2009,11,08,05,25,3.10
2009,11,08,05,26,2.10
2009,11,08,05,27,2.40
2009,11,08,05,28,0.30
2009,11,08,05,29,1.30
2009,11,08,05,30,0.60
2009,11,08,05,31,3.90
2009,11,08,05,32,2.80
2009,11,08,05,33,1.90
2009,11,08,05,34,2.90
2009,11,08,05,35,0.40
2009,11,08,05,36,0.60
2009,11,08,05,37,4.20
2009,11,08,05,38,1.80
2009,11,08,05,39,1.00
2009,11,08,05,40,0.20
2009,11,08,05,41,4.20
2009,11,08,05,42,1.50
2009,11,08,05,43,3.30
2009,11,08,05,44,2.00
2009,11,08,05,45,1.90
2009,11,08,05,46,2.80
2009,11,08,05,47,3.40
2009,11,08,05,48,0.20
2009,11,08,05,49,0.40
2009,11,08,05,50,2.80
2009,11,08,05,51,2.80
2009,11,08,05,52,6.60
2009,11,08,05,53,10.00
2009,11,08,05,54,0.20
2009,11,08,05,55,0.80
2009,11,08,05,56,1.70
2009,11,08,05,57,7.40
2009,11,08,05,58,3.90
2009,11,08,05,59,7.80
2009,11,08,06,00,2.70
2009,11,08,06,01,5.20
2009,11,08,06,02,4.30
2009,11,08,06,03,3.30
2009,11,08,06,04,3.10
2009,11,08,06,05,2.90
2009,11,08,06,06,5.60
2009,11,08,06,07,1.80
2009,11,08,06,08,3.80
2009,11,08,06,09,1.30
2009,11,08,06,10,2.40
2009,11,08,06,11,0.70
2009,11,08,06,12,1.40
2009,11,08,06,13,0.30
2009,11,08,06,14,6.80
2009,11,08,06,15,2.10
2009,11,08,06,16,7.00
2009,11,08,06,17,3.30
2009,11,08,06,18,6.80
2009,11,08,06,19,4.10
2009,11,08,06,20,2.10
2009,11,08,06,21,1.30
2009,11,08,06,22,0.20
2009,11,08,06,23,0.30
2009,11,08,06,24,1.70
2009,11,08,06,25,0.60
2009,11,08,06,26,4.60
2009,11,08,06,27,1.00
2009,11,08,06,28,1.00
2009,11,08,06,29,0.40
2009,11,08,06,30,1.10
2009,11,08,06,31,4.80
2009,11,08,06,32,4.80
2009,11,08,06,33,4.40
2009,11,08,06,34,5.50
2009,11,08,06,35,4.40
2009,11,08,06,36,4.60
2009,11,08,06,37,2.90
2009,11,08,06,38,1.50
2009,11,08,06,39,0.80
2009,11,08,06,40,2.30
2009,11,08,06,41,5.20
2009,11,08,06,42,0.70
2009,11,08,06,43,0.30
2009,11,08,06,44,1.00
2009,11,08,06,45,1.00
2009,11,08,06,46,0.60
2009,11,08,06,47,2.60
2009,11,08,06,48,3.40
2009,11,08,06,49,0.30
2009,11,08,06,50,3.60
2009,11,08,06,51,5.40
2009,11,08,06,52,6.80
2009,11,08,06,53,4.10
2009,11,08,06,54,1.00
2009,11,08,06,55,1.70
2009,11,08,06,56,2.60
2009,11,08,06,57,3.20
2009,11,08,06,58,3.80
2009,11,08,06,59,4.60
2009,11,08,07,00,8.00
2009,11,08,07,01,4.90
2009,11,08,07,02,5.50
2009,11,08,07,03,3.30
2009,11,08,07,04,3.20
2009,11,08,07,05,4.10
2009,11,08,07,06,3.40
2009,11,08,07,07,6.00
2009,11,08,07,08,4.10
2009,11,08,07,09,1.30
2009,11,08,07,10,1.40
2009,11,08,07,11,1.90
2009,11,08,07,12,1.30
2009,11,08,07,13,3.80
2009,11,08,07,14,1.70
2009,11,08,07,15,3.60
2009,11,08,07,16,3.20
2009,11,08,07,17,1.10
2009,11,08,07,18,3.00
2009,11,08,07,19,0.20
2009,11,08,07,20,1.60
2009,11,08,07,21,3.10
2009,11,08,07,22,0.50
2009,11,08,07,23,2.50
2009,11,08,07,24,0.50
2009,11,08,07,25,0.00
2009,11,08,07,26,2.40
2009,11,08,07,27,2.90
2009,11,08,07,28,0.10
2009,11,08,07,29,0.30
2009,11,08,07,30,0.00
2009,11,08,07,31,0.00
2009,11,08,07,32,1.10
2009,11,08,07,33,5.70
2009,11,08,07,34,3.80
2009,11,08,07,35,2.40
2009,11,08,07,36,1.30
2009,11,08,07,37,1.00
2009,11,08,07,38,5.30
2009,11,08,07,39,8.70
2009,11,08,07,40,4.20
2009,11,08,07,41,1.30
2009,11,08,07,42,7.20
2009,11,08,07,43,5.90
2009,11,08,07,44,0.60
2009,11,08,07,45,0.00
2009,11,08,07,46,1.30
2009,11,08,07,47,1.10
2009,11,08,07,48,2.10
2009,11,08,07,49,7.00
2009,11,08,07,50,3.30
2009,11,08,07,51,0.40
2009,11,08,07,52,1.30
2009,11,08,07,53,3.60
2009,11,08,07,54,3.10
2009,11,08,07,55,3.70
2009,11,08,07,56,1.20
2009,11,08,07,57,1.80
2009,11,08,07,58,9.50
2009,11,08,07,59,3.60
2009,11,08,08,00,9.40
2009,11,08,08,01,9.20
2009,11,08,08,02,0.50
2009,11,08,08,03,1.20
2009,11,08,08,04,7.40
2009,11,08,08,05,7.80
2009,11,08,08,06,5.90
2009,11,08,08,07,5.00
2009,11,08,08,08,6.00
2009,11,08,08,09,5.80
2009,11,08,08,10,4.40
2009,11,08,08,11,8.00
2009,11,08,08,12,6.40
2009,11,08,08,13,6.40
2009,11,08,08,14,8.10
2009,11,08,08,15,6.80
2009,11,08,08,16,2.60
2009,11,08,08,17,5.30
2009,11,08,08,18,1.90
2009,11,08,08,19,1.20
2009,11,08,08,20,3.10
2009,11,08,08,21,3.80
2009,11,08,08,22,13.80
2009,11,08,08,23,4.90
2009,11,08,08,24,5.40
2009,11,08,08,25,7.00
2009,11,08,08,26,9.40
2009,11,08,08,27,4.20
2009,11,08,08,28,9.80
2009,11,08,08,29,4.20
2009,11,08,08,30,4.80
2009,11,08,08,31,6.50
2009,11,08,08,32,8.10
2009,11,08,08,33,3.90
2009,11,08,08,34,2.90
2009,11,08,08,35,5.20
2009,11,08,08,36,4.30
2009,11,08,08,37,1.80
2009,11,08,08,38,0.60
2009,11,08,08,39,0.30
2009,11,08,08,40,3.10
2009,11,08,08,41,2.70
2009,11,08,08,42,2.10
2009,11,08,08,43,1.30
2009,11,08,08,44,3.00
2009,11,08,08,45,4.90
2009,11,08,08,46,1.40
2009,11,08,08,47,0.40
2009,11,08,08,48,2.00
2009,11,08,08,49,2.90
2009,11,08,08,50,1.80
2009,11,08,08,51,1.10
2009,11,08,08,52,3.00
2009,11,08,08,53,3.40
2009,11,08,08,54,2.90
2009,11,08,08,55,4.30
2009,11,08,08,56,4.70
2009,11,08,08,57,0.10
2009,11,08,08,58,0.00
2009,11,08,08,59,0.00
2009,11,08,09,00,0.40
2009,11,08,09,01,0.20
2009,11,08,09,02,1.40
2009,11,08,09,03,0.50
2009,11,08,09,04,3.70
2009,11,08,09,05,2.10
2009,11,08,09,06,0.00
2009,11,08,09,07,0.40
2009,11,08,09,08,1.20
2009,11,08,09,09,0.40
2009,11,08,09,10,0.00
2009,11,08,09,11,1.80
2009,11,08,09,12,1.40
2009,11,08,09,13,0.10
2009,11,08,09,14,0.00
2009,11,08,09,15,1.00
2009,11,08,09,16,0.10
2009,11,08,09,17,0.00
2009,11,08,09,18,4.80
2009,11,08,09,19,0.20
2009,11,08,09,20,0.00
2009,11,08,09,21,0.00
2009,11,08,09,22,0.10
2009,11,08,09,23,5.50
2009,11,08,09,24,2.00
2009,11,08,09,25,1.70
2009,11,08,09,26,1.00
2009,11,08,09,27,1.10
2009,11,08,09,28,0.80
2009,11,08,09,29,0.50
2009,11,08,09,30,1.00
2009,11,08,09,31,0.20
2009,11,08,09,32,0.50
2009,11,08,09,33,0.80
2009,11,08,09,34,1.90
2009,11,08,09,35,0.30
2009,11,08,09,36,0.50
2009,11,08,09,37,0.70
2009,11,08,09,38,0.00
2009,11,08,09,39,0.20
2009,11,08,09,40,2.50
2009,11,08,09,41,0.80
2009,11,08,09,42,0.00
2009,11,08,09,43,0.30
2009,11,08,09,44,0.10
2009,11,08,09,45,0.40
2009,11,08,09,46,1.30
2009,11,08,09,50,0.30
2009,11,08,09,51,0.10
2009,11,08,09,52,0.20
2009,11,08,09,53,8.40
2009,11,08,09,54,3.80
2009,11,08,09,55,2.20
2009,11,08,09,56,4.60
2009,11,08,09,57,4.60
2009,11,08,09,58,5.60
2009,11,08,09,59,5.80
2009,11,08,10,00,6.50
2009,11,08,10,01,5.00
2009,11,08,10,02,4.40
2009,11,08,10,03,1.80
2009,11,08,10,04,0.90
2009,11,08,10,05,0.40
2009,11,08,10,06,2.20
2009,11,08,10,07,0.40
2009,11,08,10,08,0.50
2009,11,08,10,09,0.00
2009,11,08,10,10,3.20
2009,11,08,10,11,4.60
2009,11,08,10,12,5.90
2009,11,08,10,13,3.20
2009,11,08,10,14,4.00
2009,11,08,10,15,4.00
2009,11,08,10,16,1.80
2009,11,08,10,17,3.80
2009,11,08,10,18,3.00
2009,11,08,10,19,5.80
2009,11,08,10,20,3.10
2009,11,08,10,21,3.70
2009,11,08,10,22,1.50
2009,11,08,10,23,0.70
2009,11,08,10,24,5.50
2009,11,08,10,25,4.60
2009,11,08,10,26,4.40
2009,11,08,10,27,3.50
2009,11,08,10,28,5.70
2009,11,08,10,29,8.80
2009,11,08,10,30,1.90
2009,11,08,10,31,2.40
2009,11,08,10,32,7.40
2009,11,08,10,33,8.40
2009,11,08,10,34,6.10
2009,11,08,10,35,1.50
2009,11,08,10,36,6.20
2009,11,08,10,37,4.30
2009,11,08,10,38,6.20
2009,11,08,10,39,4.30
2009,11,08,10,40,5.50
2009,11,08,10,41,4.10
2009,11,08,10,42,6.60
2009,11,08,10,43,5.70
2009,11,08,10,44,11.00
2009,11,08,10,45,13.40
2009,11,08,10,46,12.80
2009,11,08,10,47,7.80
2009,11,08,10,48,4.20
2009,11,08,10,49,3.50
2009,11,08,10,50,6.60
2009,11,08,10,51,8.40
2009,11,08,10,52,8.90
2009,11,08,10,53,9.50
2009,11,08,10,54,13.70
2009,11,08,10,55,6.00
2009,11,08,10,56,5.90
2009,11,08,10,57,9.60
2009,11,08,10,58,8.90
2009,11,08,10,59,11.70
2009,11,08,11,00,16.20
2009,11,08,11,01,12.40
2009,11,08,11,02,14.50
2009,11,08,11,03,6.70
2009,11,08,11,04,12.30
2009,11,08,11,05,10.20
2009,11,08,11,06,8.50
2009,11,08,11,07,8.80
2009,11,08,11,08,3.80
2009,11,08,11,09,6.70
2009,11,08,11,10,10.10
2009,11,08,11,11,7.70
2009,11,08,11,12,11.60
2009,11,08,11,13,14.00
2009,11,08,11,14,4.60
2009,11,08,11,15,11.20
2009,11,08,11,16,18.00
2009,11,08,11,17,6.20
2009,11,08,11,18,12.90
2009,11,08,11,19,10.10
2009,11,08,11,20,13.50
2009,11,08,11,21,6.30
2009,11,08,11,22,9.80
2009,11,08,11,23,7.80
2009,11,08,11,24,8.80
2009,11,08,11,25,4.20
2009,11,08,11,26,9.40
2009,11,08,11,27,10.50
2009,11,08,11,28,8.30
2009,11,08,11,29,7.20
2009,11,08,11,30,10.60
2009,11,08,11,31,5.50
2009,11,08,11,32,5.10
2009,11,08,11,33,10.40
2009,11,08,11,34,6.20
2009,11,08,11,35,9.00
2009,11,08,11,36,9.90
2009,11,08,11,37,6.10
2009,11,08,11,38,6.40
2009,11,08,11,39,7.90
2009,11,08,11,40,6.80
2009,11,08,11,41,9.00
2009,11,08,11,42,5.00
2009,11,08,11,43,3.50
2009,11,08,11,44,10.60
2009,11,08,11,45,8.00
2009,11,08,11,46,6.90
2009,11,08,11,47,12.10
2009,11,08,11,48,14.40
2009,11,08,11,49,7.00
2009,11,08,11,50,11.20
2009,11,08,11,51,5.20
2009,11,08,11,52,12.60
2009,11,08,11,53,9.10
2009,11,08,11,54,4.50
2009,11,08,11,55,2.40
2009,11,08,11,56,3.90
2009,11,08,11,57,2.10
2009,11,08,11,58,1.10
2009,11,08,11,59,10.20
2009,11,08,12,00,12.90
2009,11,08,12,01,8.80
2009,11,08,12,02,6.10
2009,11,08,12,03,3.80
2009,11,08,12,04,12.30
2009,11,08,12,05,9.50
2009,11,08,12,06,9.20
2009,11,08,12,07,6.90
2009,11,08,12,08,10.60
2009,11,08,12,09,9.00
2009,11,08,12,10,13.30
2009,11,08,12,11,12.50
2009,11,08,12,12,5.30
2009,11,08,12,13,8.00
2009,11,08,12,14,7.40
2009,11,08,12,15,13.80
2009,11,08,12,16,13.00
2009,11,08,12,17,11.90
2009,11,08,12,18,8.70
2009,11,08,12,19,5.70
2009,11,08,12,20,8.40
2009,11,08,12,21,8.50
2009,11,08,12,22,6.00
2009,11,08,12,23,12.90
2009,11,08,12,24,3.60
2009,11,08,12,25,3.10
2009,11,08,12,26,5.30
2009,11,08,12,27,4.40
2009,11,08,12,28,5.60
2009,11,08,12,29,5.80
2009,11,08,12,30,8.20
2009,11,08,12,31,8.70
2009,11,08,12,32,13.70
2009,11,08,12,33,5.90
2009,11,08,12,34,8.20
2009,11,08,12,35,7.20
2009,11,08,12,36,4.10
2009,11,08,12,37,5.50
2009,11,08,12,38,10.90
2009,11,08,12,39,12.00
2009,11,08,12,40,5.20
2009,11,08,12,41,8.60
2009,11,08,12,42,8.50
2009,11,08,12,43,4.50
2009,11,08,12,44,3.80
2009,11,08,12,45,7.80
2009,11,08,12,46,7.20
2009,11,08,12,47,4.10
2009,11,08,12,48,9.70
2009,11,08,12,49,8.10
2009,11,08,12,50,7.00
2009,11,08,12,51,9.50
2009,11,08,12,55,7.50
2009,11,08,12,56,8.60
2009,11,08,12,57,7.20
2009,11,08,12,58,11.30
2009,11,08,12,59,12.00
2009,11,08,13,00,12.00
2009,11,08,13,01,5.00
2009,11,08,13,02,6.60
2009,11,08,13,03,4.80
2009,11,08,13,04,5.60
2009,11,08,13,05,16.20
2009,11,08,13,06,13.40
2009,11,08,13,07,15.40
2009,11,08,13,08,10.10
2009,11,08,13,09,10.50
2009,11,08,13,10,10.60
2009,11,08,13,11,5.90
2009,11,08,13,12,10.50
2009,11,08,13,13,9.20
2009,11,08,13,14,15.20
2009,11,08,13,15,11.00
2009,11,08,13,16,14.30
2009,11,08,13,17,6.80
2009,11,08,13,18,11.30
2009,11,08,13,19,17.00
2009,11,08,13,20,11.90
2009,11,08,13,21,10.30
2009,11,08,13,22,11.30
2009,11,08,13,23,15.30
2009,11,08,13,24,19.30
2009,11,08,13,25,16.20
2009,11,08,13,26,10.20
2009,11,08,13,27,12.80
2009,11,08,13,28,15.80
2009,11,08,13,29,5.00
2009,11,08,13,30,13.80
2009,11,08,13,31,7.50
2009,11,08,13,32,8.60
2009,11,08,13,33,11.90
2009,11,08,13,34,10.40
2009,11,08,13,35,13.90
2009,11,08,13,36,5.80
2009,11,08,13,37,11.10
2009,11,08,13,38,3.90
2009,11,08,13,39,4.60
2009,11,08,13,40,9.60
2009,11,08,13,41,14.80
2009,11,08,13,42,15.90
2009,11,08,13,43,7.00
2009,11,08,13,44,5.50
2009,11,08,13,45,7.20
2009,11,08,13,46,13.00
2009,11,08,13,47,8.00
2009,11,08,13,48,10.00
2009,11,08,13,49,7.50
2009,11,08,13,50,11.50
2009,11,08,13,51,4.90
2009,11,08,13,52,10.60
2009,11,08,13,53,7.50
2009,11,08,13,54,9.00
2009,11,08,13,55,6.40
2009,11,08,13,56,9.70
2009,11,08,13,57,9.60
2009,11,08,13,58,9.20
2009,11,08,13,59,4.50
2009,11,08,14,00,3.70
2009,11,08,14,01,9.70
2009,11,08,14,02,8.40
2009,11,08,14,03,9.80
2009,11,08,14,04,5.70
2009,11,08,14,05,7.30
2009,11,08,14,06,4.20
2009,11,08,14,07,9.80
2009,11,08,14,08,7.00
2009,11,08,14,09,11.00
2009,11,08,14,10,9.40
2009,11,08,14,11,8.90
2009,11,08,14,12,4.70
2009,11,08,14,13,8.70
2009,11,08,14,14,8.70
2009,11,08,14,15,7.30
2009,11,08,14,16,4.90
2009,11,08,14,17,13.40
2009,11,08,14,18,2.30
2009,11,08,14,19,5.50
2009,11,08,14,20,12.80
2009,11,08,14,21,11.30
2009,11,08,14,22,8.60
2009,11,08,14,23,10.00
2009,11,08,14,24,11.50
2009,11,08,14,25,3.00
2009,11,08,14,26,10.80
2009,11,08,14,27,9.40
2009,11,08,14,28,4.50
2009,11,08,14,29,3.90
2009,11,08,14,30,8.90
2009,11,08,14,31,8.80
2009,11,08,14,32,6.20
2009,11,08,14,33,1.20
2009,11,08,14,34,7.20
2009,11,08,14,35,8.60
2009,11,08,14,36,9.10
2009,11,08,14,37,5.40
2009,11,08,14,38,12.20
2009,11,08,14,39,3.60
2009,11,08,14,40,5.00
2009,11,08,14,41,4.30
2009,11,08,14,42,9.10
2009,11,08,14,43,14.40
2009,11,08,14,44,13.90
2009,11,08,14,45,10.40
2009,11,08,14,46,6.90
2009,11,08,14,47,13.90
2009,11,08,14,48,11.80
2009,11,08,14,49,11.40
2009,11,08,14,50,9.70
2009,11,08,14,51,12.60
2009,11,08,14,52,11.20
2009,11,08,14,53,11.70
2009,11,08,14,54,6.50
2009,11,08,14,55,7.20
2009,11,08,14,56,11.80
2009,11,08,14,57,7.60
2009,11,08,14,58,15.00
2009,11,08,14,59,10.80
2009,11,08,15,00,17.40
2009,11,08,15,01,10.70
2009,11,08,15,02,14.40
2009,11,08,15,03,10.50
2009,11,08,15,04,12.10
2009,11,08,15,05,6.90
2009,11,08,15,06,12.60
2009,11,08,15,07,5.60
2009,11,08,15,08,7.20
2009,11,08,15,09,7.50
2009,11,08,15,10,7.10
2009,11,08,15,11,11.90
2009,11,08,15,12,16.20
2009,11,08,15,13,6.60
2009,11,08,15,14,12.30
2009,11,08,15,15,10.30
2009,11,08,15,16,11.30
2009,11,08,15,17,13.10
2009,11,08,15,18,11.00
2009,11,08,15,19,11.40
2009,11,08,15,20,6.50
2009,11,08,15,21,7.00
2009,11,08,15,22,10.20
2009,11,08,15,23,12.50
2009,11,08,15,24,6.30
2009,11,08,15,25,8.60
2009,11,08,15,26,8.40
2009,11,08,15,27,13.50
2009,11,08,15,28,8.40
2009,11,08,15,29,5.10
2009,11,08,15,30,10.70
2009,11,08,15,31,12.90
2009,11,08,15,32,8.20
2009,11,08,15,33,12.40
2009,11,08,15,34,10.00
2009,11,08,15,35,10.10
2009,11,08,15,36,10.60
2009,11,08,15,37,3.40
2009,11,08,15,38,4.30
2009,11,08,15,39,4.20
2009,11,08,15,40,9.30
2009,11,08,15,41,5.50
2009,11,08,15,42,11.80
2009,11,08,15,43,2.60
2009,11,08,15,44,6.20
2009,11,08,15,45,5.00
2009,11,08,15,46,3.60
2009,11,08,15,47,2.60
2009,11,08,15,48,6.00
2009,11,08,15,49,6.00
2009,11,08,15,50,7.40
2009,11,08,15,51,3.90
2009,11,08,15,52,9.60
2009,11,08,15,53,6.00
2009,11,08,15,54,3.80
2009,11,08,15,55,3.40
2009,11,08,15,56,0.80
2009,11,08,15,57,4.90
2009,11,08,15,58,3.80
2009,11,08,15,59,5.20
2009,11,08,16,00,0.40
2009,11,08,16,01,2.00
2009,11,08,16,02,0.60
2009,11,08,16,03,2.80
2009,11,08,16,04,6.70
2009,11,08,16,05,5.10
2009,11,08,16,06,2.40
2009,11,08,16,07,3.60
2009,11,08,16,08,5.10
2009,11,08,16,09,5.10
2009,11,08,16,10,3.00
2009,11,08,16,11,3.80
2009,11,08,16,12,1.80
2009,11,08,16,13,6.10
2009,11,08,16,14,5.30
2009,11,08,16,15,4.30
2009,11,08,16,16,3.80
2009,11,08,16,17,0.60
2009,11,08,16,18,3.00
2009,11,08,16,19,1.40
2009,11,08,16,20,4.50
2009,11,08,16,21,9.80
2009,11,08,16,22,3.60
2009,11,08,16,23,1.60
2009,11,08,16,24,3.80
2009,11,08,16,25,2.70
2009,11,08,16,26,1.30
2009,11,08,16,27,0.20
2009,11,08,16,28,0.00
2009,11,08,16,29,1.80
2009,11,08,16,30,3.80
2009,11,08,16,31,4.70
2009,11,08,16,32,1.40
2009,11,08,16,33,4.70
2009,11,08,16,34,5.30
2009,11,08,16,35,7.60
2009,11,08,16,36,4.00
2009,11,08,16,37,5.80
2009,11,08,16,38,4.80
2009,11,08,16,39,8.00
2009,11,08,16,40,1.70
2009,11,08,16,41,1.10
2009,11,08,16,42,0.40
2009,11,08,16,43,3.80
2009,11,08,16,44,3.10
2009,11,08,16,45,5.10
2009,11,08,16,46,7.40
2009,11,08,16,47,5.80
2009,11,08,16,48,3.30
2009,11,08,16,49,7.50
2009,11,08,16,50,2.20
2009,11,08,16,51,6.00
2009,11,08,16,52,4.40
2009,11,08,16,53,1.60
2009,11,08,16,54,2.80
2009,11,08,16,55,2.10
2009,11,08,16,56,1.80
2009,11,08,16,57,2.40
2009,11,08,16,58,7.20
2009,11,08,16,59,3.20
2009,11,08,17,00,2.30
2009,11,08,17,01,3.00
2009,11,08,17,02,3.40
2009,11,08,17,03,8.30
2009,11,08,17,04,1.20
2009,11,08,17,05,4.90
2009,11,08,17,06,6.30
2009,11,08,17,07,2.80
2009,11,08,17,08,10.60
2009,11,08,17,09,0.60
2009,11,08,17,10,3.60
2009,11,08,17,11,2.90
2009,11,08,17,12,4.50
2009,11,08,17,13,2.10
2009,11,08,17,14,5.70
2009,11,08,17,15,4.20
2009,11,08,17,16,0.00
2009,11,08,17,17,3.60
2009,11,08,17,18,1.50
2009,11,08,17,19,1.00
2009,11,08,17,20,5.80
2009,11,08,17,21,1.00
2009,11,08,17,22,5.10
2009,11,08,17,23,2.60
2009,11,08,17,24,5.90
2009,11,08,17,25,11.70
2009,11,08,17,26,4.70
2009,11,08,17,27,3.80
2009,11,08,17,28,5.40
2009,11,08,17,29,4.10
2009,11,08,17,30,5.00
2009,11,08,17,31,10.60
2009,11,08,17,32,4.80
2009,11,08,17,33,7.60
2009,11,08,17,34,8.30
2009,11,08,17,35,2.80
2009,11,08,17,36,6.20
2009,11,08,17,37,4.20
2009,11,08,17,38,0.40
2009,11,08,17,39,1.20
2009,11,08,17,40,0.40
2009,11,08,17,41,2.40
2009,11,08,17,42,0.80
2009,11,08,17,43,2.90
2009,11,08,17,44,6.20
2009,11,08,17,45,10.60
2009,11,08,17,46,4.00
2009,11,08,17,47,3.70
2009,11,08,17,48,2.80
2009,11,08,17,49,3.80
2009,11,08,17,50,5.30
2009,11,08,17,51,7.40
2009,11,08,17,52,5.40
2009,11,08,17,53,6.20
2009,11,08,17,54,3.80
2009,11,08,17,55,6.00
2009,11,08,17,56,3.90
2009,11,08,17,57,2.60
2009,11,08,17,58,0.30
2009,11,08,17,59,1.70
2009,11,08,18,00,4.30
2009,11,08,18,01,6.40
2009,11,08,18,02,10.90
2009,11,08,18,03,7.20
2009,11,08,18,04,3.40
2009,11,08,18,05,6.70
2009,11,08,18,06,4.10
2009,11,08,18,07,8.40
2009,11,08,18,08,2.40
2009,11,08,18,09,7.90